This is the latest recevied weather packets stored in our database for station/object IW1RCO-13. If no packets are shown the sender has not sent any weather packets the latest 10 day(s).
| Time | Temp. | Humidity | Pressure | Rain* | Wind** | Luminosity | Snow |
|---|---|---|---|---|---|---|---|
| 1788699570 | 31.67° C | 57% | 1021.5 hPa | - | - | - | - |
| 1788699273 | 31.67° C | 59% | 1021.3 hPa | - | - | - | - |
| 1788698969 | 31.67° C | 59% | 1021.5 hPa | - | - | - | - |
| 1788698673 | 31.11° C | 59% | 1021.5 hPa | - | - | - | - |
| 1788698369 | 31.11° C | 59% | 1021.5 hPa | - | - | - | - |
| 1788698072 | 31.11° C | 60% | 1021.1 hPa | - | - | - | - |
| 1788697769 | 31.11° C | 60% | 1021.5 hPa | - | - | - | - |
| 1788697472 | 31.67° C | 59% | 1021.3 hPa | - | - | - | - |
| 1788697169 | 31.11° C | 59% | 1021.2 hPa | - | - | - | - |
| 1788696872 | 31.67° C | 58% | 1021.6 hPa | - | - | - | - |
| 1788696568 | 31.67° C | 61% | 1021.5 hPa | - | - | - | - |
| 1788696272 | 30.56° C | 62% | 1021.6 hPa | - | - | - | - |
| 1788695997 | 30.56° C | 60% | 1021.5 hPa | - | - | - | - |
| 1788695671 | 30.56° C | 61% | 1021.6 hPa | - | - | - | - |
| 1788695368 | 30.56° C | 60% | 1021.7 hPa | - | - | - | - |
| 1788695071 | 31.11° C | 60% | 1021.1 hPa | - | - | - | - |
| 1788694767 | 31.11° C | 61% | 1021.5 hPa | - | - | - | - |
| 1788694471 | 30.56° C | 61% | 1021.6 hPa | - | - | - | - |
| 1788694167 | 30° C | 63% | 1021.2 hPa | - | - | - | - |
| 1788693870 | 30° C | 63% | 1021.5 hPa | - | - | - | - |
| 1788690869 | 29.44° C | 64% | 1021.5 hPa | - | - | - | - |
| 1788690573 | 29.44° C | 63% | 1021.5 hPa | - | - | - | - |
| 1788690269 | 29.44° C | 64% | 1021.5 hPa | - | - | - | - |
| 1788689972 | 28.89° C | 64% | 1021.5 hPa | - | - | - | - |
| 1788689669 | 28.89° C | 63% | 1021.5 hPa | - | - | - | - |
* Rain since midnight (hover to see other rain measurements)
** Current wind speed in m/s (hover to see current wind gust speed)